E 117 W B (WAAS/PRN 131)

Last updated on Oct. 27, 2021, 12:03 a.m. UTC

1 41589U 16038B   21299.49199907 -.00000004  00000-0  00000-0 0  9991
2 41589   0.0111 100.8261 0000360  23.5873 330.8053  1.00270638 19680
UTC
Height (km)
Latitude
Longitude
Inclination
Orbital Period
UTC large
Height (km)
Speed (km/s)
/
Latitude / Longitude
Inclination (degrees)
Orbital Period (minutes)
Azimuth
Elevation
Range (km)
Doppler Factor
iOS Compass Heading
iOS Angle